GW1920 Weather Reports


Display with metric or nautical units.
time (UTC)temp
F
wind
direction
speed
MPH
gust
MPH
rain 1hr
in
rain 24hr
in
rain mn
in
humidity
%
barometer
mb
20260902191526 60 126 2.0 2.0 0.00 0.08 0.08 95 1009.1
20260902191020 60 93 1.0 1.0 0.00 0.08 0.08 93 1009.2
20260902190516 59 113 3.0 3.0 0.00 0.08 0.08 95 1009.1
20260902190012 59 57 1.0 2.0 0.00 0.08 0.08 97 1009.2
20260902185508 59 66 2.0 2.0 0.00 0.08 0.08 99 1009.1
20260902185003 59 344 0.0 0.0 0.00 0.08 0.08 99 1009.1
20260902184458 59 358 1.0 1.0 0.00 0.08 0.08 99 1009.3
20260902183953 59 28 0.0 0.0 0.00 0.08 0.08 99 1009.1
20260902183449 59 34 0.0 0.0 0.00 0.08 0.08 99 1009.2
20260902182945 59 38 0.0 0.0 0.00 0.08 0.08 99 1009.2
20260902182441 59 29 0.0 0.0 0.05 0.08 0.08 99 1009.2
20260902181937 59 43 0.0 0.0 0.00 0.07 0.07 99 1009.1
20260902181432 59 38 0.0 0.0 0.00 0.07 0.07 99 1009.1
20260902180927 58 30 0.0 0.0 0.00 0.07 0.07 99 1009.2
20260902180422 58 49 0.0 0.0 0.00 0.07 0.07 99 1009.1
20260902175918 58 24 0.0 0.0 0.00 0.07 0.07 99 1009.1
20260902175413 58 63 0.0 0.0 0.00 0.07 0.07 99 1008.9
20260902174908 58 32 0.0 0.0 0.07 0.07 0.07 99 1009.1
20260902174405 58 356 0.0 0.0 0.07 0.07 0.07 99 1008.8
20260902173901 58 40 0.0 0.0 0.07 0.07 0.07 99 1008.7
20260902173400 58 79 0.0 0.0 0.05 0.06 0.06 99 1008.9
20260902172855 58 31 0.0 0.0 0.05 0.06 0.06 99 1008.9
20260902172354 58 31 0.0 0.0 0.00 0.05 0.05 99 1008.8
20260902171849 58 36 0.0 0.0 0.00 0.05 0.05 99 1008.9
20260902171345 58 34 0.0 0.0 0.07 0.05 0.05 99 1008.8
20260902170841 58 55 0.0 0.0 0.07 0.05 0.05 99 1008.9
20260902170336 58 39 0.0 0.0 0.00 0.04 0.04 99 1008.7
20260902165832 58 34 0.0 0.0 0.00 0.04 0.04 99 1008.6
20260902165331 58 40 0.0 0.0 0.05 0.04 0.04 99 1008.8
20260902164825 58 36 0.0 0.0 0.05 0.04 0.04 99 1008.5
20260902164321 58 71 0.0 0.0 0.00 0.03 0.03 99 1008.7
20260902163814 58 92 0.0 0.0 0.00 0.03 0.03 99 1008.7
20260902163309 58 64 0.0 0.0 0.00 0.03 0.03 99 1008.7
20260902162807 58 67 0.0 0.0 0.07 0.03 0.03 99 1008.8
20260902162306 58 71 0.0 0.0 0.07 0.03 0.03 99 1008.7
20260902161802 58 37 0.0 0.0 0.00 0.02 0.02 99 1008.5
20260902161258 58 86 0.0 0.0 0.00 0.02 0.02 99 1008.8
20260902160754 58 86 0.0 0.0 0.00 0.02 0.02 99 1008.5
20260902160249 58 69 0.0 0.0 0.00 0.02 0.02 99 1008.6
20260902155747 58 80 0.0 0.0 0.00 0.02 0.02 99 1008.8
20260902155246 58 79 0.0 0.0 0.05 0.02 0.02 99 1008.8
20260902154741 58 64 0.0 0.0 0.05 0.02 0.02 99 1008.9
20260902154236 58 58 0.0 0.0 0.00 0.01 0.01 99 1008.7
20260902153729 58 36 0.0 0.0 0.07 0.01 0.01 98 1008.7
20260902153224 58 49 0.0 0.0 0.07 0.01 0.01 97 1008.5
20260902152720 59 50 1.0 1.0 0.00 0.00 0.00 97 1008.6
20260902152215 59 68 0.0 0.0 0.00 0.00 0.00 96 1008.6
20260902151711 59 54 0.0 0.0 0.00 0.00 0.00 96 1008.5
20260902151206 59 70 0.0 1.0 0.00 0.00 0.00 94 1008.5
20260902150701 60 67 1.0 2.0 0.00 0.00 0.00 92 1008.5
20260902150157 60 59 0.0 0.0 0.00 0.00 0.00 90 1008.6
20260902145656 61 71 0.0 1.0 0.00 0.00 0.00 87 1007.9
20260902145156 61 88 0.0 1.0 0.00 0.00 0.00 86 1008.0
20260902144652 61 79 1.0 2.0 0.00 0.00 0.00 84 1008.1
20260902144148 60 9 0.0 0.0 0.00 0.00 0.00 87 1008.1
20260902143648 61 25 0.0 1.0 0.00 0.00 0.00 85 1008.2
20260902143143 60 63 0.0 0.0 0.00 0.00 0.00 86 1008.0
20260902142639 60 12 0.0 1.0 0.00 0.00 0.00 84 1008.2
20260902142135 60 1 0.0 0.0 0.00 0.00 0.00 85 1008.1
20260902141634 60 26 0.0 0.0 0.00 0.00 0.00 86 1008.0
20260902141129 60 318 0.0 2.0 0.00 0.00 0.00 86 1008.1
20260902140625 59 28 0.0 0.0 0.00 0.00 0.00 88 1008.1
20260902140119 59 72 0.0 0.0 0.00 0.00 0.00 89 1008.3
20260902135619 58 72 1.0 2.0 0.00 0.00 0.00 88 1008.1
20260902135114 58 62 0.0 1.0 0.00 0.00 0.00 90 1008.2
20260902134609 58 64 0.0 0.0 0.00 0.00 0.00 91 1008.1
20260902134104 58 60 0.0 0.0 0.00 0.00 0.00 90 1008.1
20260902133558 58 356 0.0 0.0 0.00 0.00 0.00 89 1008.0
20260902133059 57 59 1.0 1.0 0.00 0.00 0.00 91 1008.0
20260902132554 56 71 1.0 1.0 0.00 0.00 0.00 92 1008.2
20260902132049 56 60 0.0 0.0 0.00 0.00 0.00 95 1008.1
20260902131545 56 43 0.0 0.0 0.00 0.00 0.00 96 1007.9
20260902131040 55 57 0.0 1.0 0.00 0.00 0.00 97 1007.9
20260902130536 55 21 0.0 0.0 0.00 0.00 0.00 96 1008.1
20260902130031 56 15 0.0 0.0 0.00 0.00 0.00 97 1008.1
20260902125527 55 27 0.0 0.0 0.00 0.00 0.00 96 1008.2
20260902125022 55 355 0.0 0.0 0.00 0.00 0.00 96 1008.2
20260902124518 55 353 0.0 0.0 0.00 0.00 0.00 96 1007.9
20260902124013 56 355 0.0 0.0 0.00 0.00 0.00 96 1008.1
20260902123509 55 35 0.0 0.0 0.00 0.00 0.00 96 1008.0
20260902123008 55 17 0.0 0.0 0.00 0.00 0.00 96 1007.9
20260902122503 55 13 0.0 0.0 0.00 0.00 0.00 96 1007.9
20260902121958 55 357 0.0 0.0 0.00 0.00 0.00 96 1007.9
20260902121454 55 2 0.0 0.0 0.00 0.00 0.00 97 1007.7
20260902120948 55 30 0.0 0.0 0.00 0.00 0.00 96 1007.8
20260902120445 55 25 0.0 0.0 0.00 0.00 0.00 96 1007.7
20260902115944 55 18 0.0 0.0 0.00 0.00 0.00 96 1008.1
20260902115441 55 37 0.0 0.0 0.00 0.00 0.00 96 1008.0
20260902114937 55 39 0.0 0.0 0.00 0.00 0.00 97 1008.0
20260902114432 55 49 0.0 0.0 0.00 0.00 0.00 97 1008.2
20260902113927 55 31 0.0 0.0 0.00 0.00 0.00 97 1008.2
20260902113423 55 15 0.0 0.0 0.00 0.00 0.00 97 1008.1
20260902112922 55 24 0.0 0.0 0.00 0.00 0.00 97 1008.1
20260902112418 55 359 0.0 0.0 0.00 0.00 0.00 97 1008.4
20260902111914 55 22 0.0 0.0 0.00 0.00 0.00 97 1008.2
20260902111411 55 19 0.0 0.0 0.00 0.00 0.00 97 1008.3
20260902110906 55 29 0.0 0.0 0.00 0.00 0.00 97 1008.4
20260902110402 55 355 0.0 0.0 0.00 0.00 0.00 97 1008.5
20260902105902 55 355 0.0 0.0 0.00 0.00 0.00 97 1008.2
20260902105357 55 355 0.0 0.0 0.00 0.00 0.00 97 1008.0
20260902104852 55 354 0.0 0.0 0.00 0.00 0.00 97 1008.5
20260902104348 55 351 0.0 0.0 0.00 0.00 0.00 97 1008.3
20260902103847 55 358 0.0 0.0 0.00 0.00 0.00 98 1008.3
20260902103343 54 0 0.0 0.0 0.00 0.00 0.00 98 1008.1
20260902102837 55 31 0.0 0.0 0.00 0.00 0.00 98 1008.2
20260902102336 55 37 0.0 0.0 0.00 0.00 0.00 98 1007.9
20260902101830 54 49 0.0 0.0 0.00 0.00 0.00 98 1008.3
20260902101325 54 34 0.0 0.0 0.00 0.00 0.00 98 1008.3
20260902100824 54 33 0.0 0.0 0.00 0.00 0.00 98 1008.3
20260902100318 54 33 0.0 0.0 0.00 0.00 0.00 98 1008.5
20260902095813 54 43 0.0 0.0 0.00 0.00 0.00 98 1008.3
20260902095308 54 43 0.0 0.0 0.00 0.00 0.00 98 1008.5
20260902094803 54 43 0.0 0.0 0.00 0.00 0.00 98 1008.4
20260902094259 54 48 0.0 0.0 0.00 0.00 0.00 98 1008.8
20260902093758 54 36 0.0 0.0 0.00 0.00 0.00 98 1008.7
20260902093253 54 35 0.0 0.0 0.00 0.00 0.00 97 1008.7
20260902092752 54 40 0.0 0.0 0.00 0.00 0.00 97 1008.6
20260902092248 55 50 0.0 0.0 0.00 0.00 0.00 97 1008.7
20260902091747 54 17 0.0 0.0 0.00 0.00 0.00 97 1008.8
20260902091244 54 21 0.0 0.0 0.00 0.00 0.00 97 1008.8
20260902090740 54 26 0.0 0.0 0.00 0.00 0.00 97 1008.9
20260902090239 54 17 0.0 0.0 0.00 0.00 0.00 96 1009.2
20260902085733 55 20 0.0 0.0 0.00 0.00 0.00 96 1009.2
20260902085229 55 350 0.0 0.0 0.00 0.00 0.00 96 1009.3
20260902084724 54 350 0.0 0.0 0.00 0.00 0.00 97 1009.4
20260902084215 54 358 0.0 0.0 0.00 0.00 0.00 97 1009.2
20260902083714 54 358 0.0 0.0 0.00 0.00 0.00 98 1009.1
20260902083209 54 358 0.0 0.0 0.00 0.00 0.00 98 1008.9
20260902082704 54 358 0.0 0.0 0.00 0.00 0.00 98 1009.1
20260902082201 54 358 0.0 0.0 0.00 0.00 0.00 98 1009.2
20260902081657 54 357 0.0 0.0 0.00 0.00 0.00 98 1009.3
20260902081152 54 29 0.0 0.0 0.00 0.00 0.00 98 1009.3
20260902080646 54 30 0.0 0.0 0.00 0.00 0.00 98 1009.2
20260902080143 54 40 0.0 0.0 0.00 0.00 0.00 98 1009.2
20260902075643 54 41 0.0 0.0 0.00 0.00 0.00 98 1008.9
20260902075139 54 47 0.0 0.0 0.00 0.00 0.00 99 1008.9
20260902074634 54 42 0.0 0.0 0.00 0.00 0.00 98 1008.9
20260902074129 54 41 0.0 0.0 0.00 0.00 0.00 98 1008.9
20260902073624 54 43 0.0 0.0 0.00 0.00 0.00 98 1008.9
20260902073121 54 27 0.0 0.0 0.00 0.00 0.00 98 1009.1
20260902072616 54 27 0.0 0.0 0.00 0.00 0.00 98 1009.1
20260902072112 54 33 0.0 0.0 0.00 0.00 0.00 98 1009.4
20260902071607 54 30 0.0 0.0 0.00 0.00 0.00 98 1009.5
20260902071103 54 30 0.0 0.0 0.00 0.00 0.00 98 1009.3
20260902070559 54 30 0.0 0.0 0.00 0.00 0.00 98 1009.4
20260902070053 54 30 0.0 0.0 0.00 0.00 0.00 98 1009.3
20260902065547 54 30 0.0 0.0 0.00 0.02 0.02 98 1009.5
20260902065043 54 30 0.0 0.0 0.00 0.02 0.02 98 1009.2
20260902064538 54 36 0.0 0.0 0.00 0.02 0.02 98 1009.5
20260902064034 54 35 0.0 0.0 0.00 0.02 0.02 98 1009.2
20260902063533 55 30 0.0 0.0 0.00 0.02 0.02 98 1009.4
20260902063028 55 26 0.0 0.0 0.00 0.02 0.02 98 1009.2
20260902062526 55 26 0.0 0.0 0.00 0.02 0.02 98 1009.5
20260902062022 55 26 0.0 0.0 0.00 0.02 0.02 98 1009.5
20260902061517 55 27 0.0 0.0 0.00 0.02 0.02 98 1009.2
20260902061013 55 25 0.0 0.0 0.00 0.02 0.02 97 1009.5
20260902060509 55 25 0.0 0.0 0.00 0.02 0.02 97 1009.6
20260902060005 56 25 0.0 0.0 0.00 0.02 0.02 97 1009.6
20260902055501 56 24 0.0 0.0 0.00 0.02 0.02 96 1009.7
20260902054956 56 24 0.0 0.0 0.00 0.02 0.02 95 1009.5
20260902054456 57 24 0.0 0.0 0.00 0.02 0.02 95 1009.6
20260902053951 57 24 0.0 0.0 0.00 0.02 0.02 94 1009.6
20260902053446 57 25 0.0 0.0 0.00 0.02 0.02 95 1009.6
20260902052945 57 352 0.0 0.0 0.00 0.02 0.02 95 1009.5
20260902052440 58 352 0.0 0.0 0.00 0.02 0.02 93 1009.5
20260902051936 58 1 0.0 0.0 0.00 0.02 0.02 90 1009.5
20260902051431 59 34 0.0 0.0 0.00 0.02 0.02 90 1009.3
20260902050930 58 31 1.0 1.0 0.00 0.02 0.02 91 1009.2
20260902050429 58 50 1.0 1.0 0.00 0.02 0.02 91 1009.2
20260902045925 58 328 0.0 1.0 0.00 0.02 0.02 91 1009.2
20260902045420 58 81 1.0 2.0 0.00 0.02 0.02 92 1009.1
20260902044916 58 82 1.0 1.0 0.00 0.02 0.02 92 1009.2
20260902044411 58 55 1.0 1.0 0.00 0.02 0.02 93 1009.3
20260902043907 58 354 0.0 0.0 0.00 0.02 0.02 94 1009.1
20260902043402 58 32 0.0 0.0 0.00 0.02 0.02 94 1009.1
20260902042857 58 18 0.0 0.0 0.00 0.02 0.02 94 1009.2
20260902042356 58 19 0.0 0.0 0.00 0.02 0.02 94 1009.1
20260902041852 58 53 0.0 0.0 0.00 0.02 0.02 94 1008.9
20260902041352 59 38 0.0 0.0 0.00 0.02 0.02 94 1008.9
20260902040850 59 39 0.0 0.0 0.00 0.02 0.02 93 1008.7
20260902040346 59 42 0.0 0.0 0.00 0.02 0.02 92 1008.7
20260902035844 59 49 0.0 0.0 0.00 0.02 0.02 92 1008.8
20260902035340 60 27 0.0 0.0 0.00 0.02 0.02 93 1008.9
20260902034839 60 27 0.0 0.0 0.00 0.02 0.02 93 1009.1
20260902034334 60 27 0.0 0.0 0.00 0.02 0.02 92 1008.7
20260902033832 60 26 0.0 0.0 0.00 0.02 0.02 92 1008.6
20260902033328 60 26 0.0 0.0 0.00 0.02 0.02 91 1008.4
20260902032827 60 26 0.0 0.0 0.00 0.02 0.02 91 1008.6
20260902032322 60 26 0.0 0.0 0.00 0.02 0.02 90 1008.7
20260902031821 61 29 0.0 0.0 0.00 0.02 0.02 90 1008.5
20260902031318 61 19 0.0 0.0 0.00 0.02 0.02 90 1008.7
20260902030813 61 19 0.0 0.0 0.00 0.02 0.02 90 1008.7
20260902030308 61 19 0.0 0.0 0.00 0.02 0.02 89 1008.6
20260902025807 61 19 0.0 0.0 0.00 0.02 0.02 89 1008.6
20260902025306 61 19 0.0 0.0 0.00 0.02 0.02 89 1008.5
20260902024756 62 19 0.0 0.0 0.00 0.02 0.02 89 1008.8
20260902024252 62 19 0.0 0.0 0.00 0.02 0.02 88 1008.7
20260902023748 62 19 0.0 0.0 0.00 0.02 0.02 88 1008.7
20260902023243 62 19 0.0 0.0 0.00 0.02 0.02 88 1008.6
20260902022742 62 19 0.0 0.0 0.00 0.02 0.02 88 1008.9
20260902022238 62 20 0.0 0.0 0.00 0.02 0.02 87 1008.7
20260902021734 63 8 0.0 0.0 0.00 0.02 0.02 87 1008.8
20260902021233 62 6 0.0 0.0 0.00 0.02 0.02 85 1008.4
20260902020729 63 6 0.0 0.0 0.00 0.02 0.02 86 1008.6
20260902020225 63 24 0.0 0.0 0.00 0.02 0.02 84 1008.7
20260902015720 63 352 0.0 0.0 0.00 0.02 0.02 83 1008.7
20260902015217 63 352 0.0 0.0 0.00 0.02 0.02 82 1008.4
20260902014712 63 352 0.0 0.0 0.00 0.02 0.02 82 1008.6
20260902014209 64 353 0.0 0.0 0.00 0.02 0.02 81 1008.8
20260902013707 64 352 0.0 0.0 0.00 0.02 0.02 81 1008.7
20260902013203 64 352 0.0 0.0 0.00 0.02 0.02 82 1008.7
20260902012658 64 353 0.0 0.0 0.00 0.02 0.02 80 1008.7
20260902012153 64 354 0.0 0.0 0.00 0.02 0.02 80 1008.7
20260902011649 65 353 0.0 0.0 0.00 0.02 0.02 79 1008.6
20260902011143 65 1 0.0 0.0 0.00 0.02 0.02 80 1008.7
20260902010642 65 355 0.0 0.0 0.00 0.02 0.02 79 1008.5
20260902010138 65 351 0.0 0.0 0.00 0.02 0.02 79 1008.6
20260902005636 65 355 1.0 1.0 0.00 0.02 0.02 79 1008.7
20260902005132 65 344 0.0 0.0 0.00 0.02 0.02 79 1008.4
20260902004631 65 353 0.0 0.0 0.00 0.02 0.02 79 1008.6
20260902004127 65 356 0.0 0.0 0.00 0.02 0.02 79 1008.5
20260902003622 65 355 1.0 1.0 0.00 0.02 0.02 78 1008.6
20260902003117 66 349 0.0 0.0 0.00 0.02 0.02 78 1008.6
20260902002613 66 344 0.0 0.0 0.00 0.02 0.02 77 1008.7
20260902002108 66 345 1.0 1.0 0.00 0.02 0.02 76 1008.7
20260902001603 66 340 0.0 0.0 0.00 0.02 0.02 77 1008.6
20260902001057 66 343 0.0 0.0 0.00 0.02 0.02 76 1008.5
20260902000552 65 351 1.0 1.0 0.00 0.02 0.02 77 1008.6
20260902000042 65 340 0.0 0.0 0.00 0.02 0.02 76 1008.4
20260901235536 65 336 1.0 1.0 0.00 0.02 0.02 78 1008.6
20260901235032 65 345 1.0 1.0 0.00 0.02 0.02 76 1008.7
20260901234530 66 331 4.0 5.0 0.00 0.02 0.02 76 1008.4
20260901234026 66 329 2.0 2.0 0.00 0.02 0.02 77 1008.5
20260901233526 66 335 2.0 2.0 0.00 0.02 0.02 77 1008.6
20260901233022 67 285 0.0 0.0 0.00 0.02 0.02 78 1008.5
20260901232517 68 330 1.0 1.0 0.00 0.02 0.02 77 1008.4
20260901232012 67 330 0.0 0.0 0.00 0.02 0.02 77 1008.5
20260901231509 65 340 1.0 1.0 0.00 0.02 0.02 79 1008.6
20260901231005 66 315 3.0 3.0 0.00 0.02 0.02 79 1008.7
20260901230504 67 323 2.0 2.0 0.00 0.02 0.02 78 1008.8
20260901225959 68 343 1.0 1.0 0.00 0.02 0.02 76 1008.6
20260901225454 70 291 3.0 3.0 0.00 0.02 0.02 71 1008.8
20260901224949 71 339 1.0 1.0 0.00 0.02 0.02 67 1008.4
20260901224444 72 282 1.0 2.0 0.00 0.02 0.02 67 1008.6
20260901223941 71 239 1.0 2.0 0.00 0.02 0.02 67 1008.6
20260901223436 71 359 1.0 3.0 0.00 0.02 0.02 67 1008.6
20260901222932 71 249 5.0 6.0 0.00 0.02 0.02 67 1008.7
20260901222428 70 13 0.0 0.0 0.00 0.02 0.02 68 1008.8
20260901221924 71 295 2.0 5.0 0.00 0.02 0.02 69 1008.9
20260901221419 70 10 0.0 1.0 0.00 0.02 0.02 73 1008.8
20260901220914 69 312 0.0 0.0 0.00 0.02 0.02 73 1008.8
20260901220413 68 327 0.0 0.0 0.00 0.02 0.02 76 1009.4
20260901215912 67 336 0.0 0.0 0.00 0.02 0.02 76 1009.2
20260901215411 66 337 0.0 0.0 0.00 0.02 0.02 83 1009.4
20260901214910 66 341 0.0 0.0 0.00 0.02 0.02 84 1009.2
20260901214409 65 335 0.0 0.0 0.00 0.02 0.02 85 1009.5
20260901213908 65 216 0.0 1.0 0.00 0.02 0.02 84 1009.3
20260901213403 63 16 0.0 0.0 0.00 0.02 0.02 86 1009.3
20260901212902 63 359 0.0 0.0 0.00 0.02 0.02 88 1009.4
20260901212358 62 5 0.0 0.0 0.00 0.02 0.02 89 1009.3
20260901211855 62 37 0.0 0.0 0.00 0.02 0.02 92 1009.7
20260901211350 61 15 0.0 0.0 0.00 0.02 0.02 93 1009.5
20260901210846 61 30 0.0 0.0 0.00 0.02 0.02 94 1009.7
20260901210341 61 346 0.0 0.0 0.00 0.02 0.02 94 1009.6
20260901205838 61 344 0.0 0.0 0.00 0.02 0.02 95 1009.5
20260901205337 61 344 0.0 0.0 0.00 0.02 0.02 93 1009.7
20260901204832 60 18 0.0 0.0 0.00 0.02 0.02 94 1009.7
20260901204328 60 3 0.0 0.0 0.00 0.02 0.02 94 1009.9
20260901203824 60 346 0.0 0.0 0.00 0.02 0.02 94 1009.5
20260901203323 60 5 0.0 0.0 0.00 0.02 0.02 94 1009.6
20260901202818 60 355 0.0 0.0 0.00 0.02 0.02 94 1009.7
20260901202313 60 21 0.0 0.0 0.00 0.02 0.02 95 1009.6
20260901201809 61 25 0.0 0.0 0.00 0.02 0.02 96 1009.7
20260901201308 60 17 0.0 0.0 0.00 0.02 0.02 96 1009.7
20260901200802 60 20 0.0 0.0 0.00 0.02 0.02 95 1009.9
20260901200258 61 27 0.0 0.0 0.00 0.02 0.02 96 1009.8
20260901195755 61 14 0.0 0.0 0.00 0.02 0.02 96 1009.9
20260901195250 60 11 0.0 0.0 0.00 0.02 0.02 95 1009.7
20260901194745 60 17 0.0 0.0 0.05 0.02 0.02 96 1009.8
20260901194240 60 2 0.0 0.0 0.05 0.02 0.02 96 1009.9
20260901193736 60 0 0.0 0.0 0.00 0.01 0.01 96 1010.0
20260901193235 60 2 0.0 0.0 0.00 0.01 0.01 96 1009.9
20260901192730 60 350 0.0 0.0 0.00 0.01 0.01 95 1009.8
20260901192225 60 0 0.0 0.0 0.07 0.01 0.01 94 1009.7
20260901191721 61 2 0.0 0.0 0.07 0.01 0.01 93 1010.1